NKS2462 KFLL-KEWR

Flight info

Callsign NKS2462
Flight time N/A
Altitude 37000
Route FEALX2 ETECK GRUBR Y299 SEELO GARIC Q129 AARNN QUART PHLBO4
Aircraft A320/M-SDE3FGHIRWY/LB1

Departure

Time 2026-05-04 18:48
Airport Fort Lauderdale Hollywood International Airport (KFLL)

Arrival

Time N/A
Airport Newark Liberty International Airport (KEWR)
Time Latitude Longitude Altitude Speed Heading
2026-05-04 18:26 26.07050 -80.14669 16 ft 0 kts 17°
2026-05-04 18:31 26.07034 -80.14674 27 ft 4 kts 17°
2026-05-04 18:31 26.07009 -80.14683 17 ft 4 kts
2026-05-04 18:32 26.06995 -80.14676 17 ft 4 kts 277°
2026-05-04 18:32 26.06994 -80.14653 16 ft 3 kts 270°
2026-05-04 18:32 26.06994 -80.14649 16 ft 0 kts 270°
2026-05-04 18:36 26.06994 -80.14657 16 ft 4 kts 270°
2026-05-04 18:36 26.06995 -80.14720 16 ft 11 kts 271°
2026-05-04 18:36 26.07031 -80.14800 16 ft 13 kts 316°
2026-05-04 18:36 26.07100 -80.14855 16 ft 11 kts 351°
2026-05-04 18:37 26.07167 -80.14855 16 ft 9 kts 360°
2026-05-04 18:37 26.07249 -80.14855 16 ft 14 kts
2026-05-04 18:37 26.07361 -80.14865 16 ft 16 kts 333°
2026-05-04 18:37 26.07410 -80.14956 16 ft 13 kts 316°
2026-05-04 18:38 26.07469 -80.15020 16 ft 11 kts 316°
2026-05-04 18:38 26.07489 -80.15094 16 ft 10 kts 270°
2026-05-04 18:38 26.07490 -80.15196 16 ft 17 kts 270°
2026-05-04 18:38 26.07491 -80.15329 16 ft 17 kts 271°
2026-05-04 18:39 26.07492 -80.15459 16 ft 16 kts 270°
2026-05-04 18:39 26.07492 -80.15582 16 ft 16 kts 270°
2026-05-04 18:39 26.07492 -80.15701 16 ft 15 kts 270°
2026-05-04 18:39 26.07493 -80.15816 16 ft 15 kts 270°
2026-05-04 18:40 26.07493 -80.15925 16 ft 15 kts 270°
2026-05-04 18:40 26.07495 -80.16071 16 ft 20 kts 271°
2026-05-04 18:40 26.07497 -80.16228 16 ft 20 kts 270°
2026-05-04 18:40 26.07497 -80.16381 16 ft 20 kts 270°
2026-05-04 18:41 26.07497 -80.16532 16 ft 19 kts 270°
2026-05-04 18:41 26.07536 -80.16643 16 ft 13 kts 355°
2026-05-04 18:41 26.07578 -80.16642 18 ft 0 kts
2026-05-04 18:47 26.07579 -80.16642 18 ft 0 kts
2026-05-04 18:47 26.07626 -80.16641 17 ft 15 kts
2026-05-04 18:47 26.07695 -80.16571 18 ft 16 kts 89°
2026-05-04 18:47 26.07693 -80.16361 22 ft 55 kts 90°
2026-05-04 18:48 26.07690 -80.15699 17 ft 113 kts 90°
2026-05-04 18:48 26.07684 -80.14659 34 ft 154 kts 91°
2026-05-04 18:48 26.07675 -80.13470 650 ft 150 kts 86°
2026-05-04 18:48 26.07679 -80.12299 1285 ft 151 kts 81°
2026-05-04 18:49 26.07703 -80.11127 1944 ft 155 kts 85°
2026-05-04 18:49 26.07732 -80.09848 2284 ft 176 kts 85°
2026-05-04 18:49 26.07761 -80.08392 2642 ft 201 kts 84°
2026-05-04 18:49 26.07779 -80.07314 2959 ft 219 kts 84°
2026-05-04 18:50 26.07807 -80.05524 3565 ft 244 kts 86°
2026-05-04 18:50 26.07829 -80.03560 4243 ft 262 kts 86°
2026-05-04 18:50 26.07896 -80.01493 4810 ft 270 kts 76°
2026-05-04 18:50 26.08562 -79.99573 4961 ft 265 kts 53°
2026-05-04 18:51 26.09644 -79.97909 5000 ft 266 kts 51°
2026-05-04 18:51 26.10741 -79.96248 5003 ft 266 kts 51°
2026-05-04 18:51 26.11833 -79.94590 5003 ft 266 kts 51°
2026-05-04 18:51 26.12929 -79.92921 5015 ft 268 kts 52°
2026-05-04 18:52 26.14043 -79.91226 5612 ft 273 kts 51°
2026-05-04 18:52 26.15178 -79.89499 6390 ft 280 kts 51°
2026-05-04 18:52 26.16341 -79.87727 7090 ft 288 kts 50°
2026-05-04 18:52 26.17536 -79.85900 7800 ft 295 kts 51°
2026-05-04 18:53 26.18751 -79.84040 8535 ft 301 kts 51°
2026-05-04 18:53 26.19997 -79.82133 9268 ft 308 kts 51°
2026-05-04 18:53 26.21271 -79.80183 10026 ft 314 kts 51°
2026-05-04 18:53 26.22586 -79.78166 10441 ft 333 kts 51°
2026-05-04 18:54 26.23997 -79.76006 10692 ft 357 kts 51°
2026-05-04 18:54 26.25498 -79.73709 11108 ft 372 kts 52°
2026-05-04 18:54 26.27031 -79.71354 11665 ft 379 kts 52°
2026-05-04 18:54 26.28585 -79.68955 12262 ft 385 kts 51°
2026-05-04 18:55 26.30318 -79.66672 12840 ft 387 kts 43°
2026-05-04 18:55 26.34120 -79.62307 13989 ft 397 kts 43°
2026-05-04 18:55 26.36058 -79.60083 14493 ft 401 kts 43°
2026-05-04 18:56 26.38009 -79.57842 15024 ft 405 kts 43°
2026-05-04 18:56 26.39981 -79.55574 15540 ft 409 kts 43°
2026-05-04 18:56 26.41968 -79.53285 16057 ft 412 kts 43°
2026-05-04 18:56 26.43972 -79.50976 16559 ft 416 kts 43°
2026-05-04 18:57 26.45992 -79.48649 17066 ft 419 kts 43°
2026-05-04 18:57 26.48027 -79.46299 17579 ft 423 kts 42°
2026-05-04 18:57 26.50079 -79.43925 18108 ft 426 kts 42°
2026-05-04 18:57 26.52147 -79.41533 18567 ft 430 kts 42°
2026-05-04 18:58 26.54251 -79.39133 18998 ft 433 kts 39°
2026-05-04 18:58 26.56594 -79.37040 19444 ft 430 kts 29°
2026-05-04 18:58 26.59113 -79.35314 19900 ft 431 kts 26°
2026-05-04 18:58 26.61724 -79.33554 20367 ft 434 kts 26°
2026-05-04 18:59 26.64317 -79.31798 20826 ft 437 kts 26°
2026-05-04 18:59 26.66929 -79.30022 21276 ft 441 kts 27°
2026-05-04 18:59 26.69517 -79.28258 21709 ft 443 kts 27°
2026-05-04 18:59 26.72159 -79.26457 22137 ft 446 kts 27°
2026-05-04 19:00 26.74819 -79.24645 22562 ft 449 kts 27°
2026-05-04 19:00 26.77495 -79.22818 22993 ft 452 kts 27°
2026-05-04 19:00 26.80189 -79.20975 23404 ft 456 kts 27°
2026-05-04 19:00 26.82902 -79.19116 23791 ft 458 kts 27°
2026-05-04 19:01 26.85630 -79.17252 24153 ft 461 kts 27°
2026-05-04 19:01 26.88409 -79.15354 24532 ft 463 kts 26°